Time,TemperatureF,DewpointF,PressureIn,WindDirection,WindDirectionDegrees,WindSpeedMPH,WindSpeedGustMPH,Humidity,HourlyPrecipIn,Conditions,Clouds,dailyrainin,SoftwareType,DateUTC
2013-08-16 00:01:00,61.0,25.9,0.00,West,268,0.0,0.0,26,0.00,,---,0.00,VWS V14.01,2013-08-16 04:01:00,
2013-08-16 00:02:00,60.8,25.7,0.00,West,268,0.0,0.0,26,0.00,,---,0.00,VWS V14.01,2013-08-16 04:02:00,
2013-08-16 00:03:00,60.8,25.7,0.00,West,268,0.0,0.0,26,0.00,,---,0.00,VWS V14.01,2013-08-16 04:03:00,
2013-08-16 00:08:00,60.6,25.6,0.00,West,268,0.0,0.0,26,0.00,,---,0.00,VWS V14.01,2013-08-16 04:08:00,
2013-08-16 00:10:00,60.6,25.6,0.00,West,268,0.0,0.0,26,0.00,,---,0.00,VWS V14.01,2013-08-16 04:10:00,
2013-08-16 00:15:00,60.4,26.3,0.00,West,268,0.0,0.0,27,0.00,,---,0.00,VWS V14.01,2013-08-16 04:15:00,
2013-08-16 00:20:00,60.3,26.2,0.00,West,268,0.0,0.0,27,0.00,,---,0.00,VWS V14.01,2013-08-16 04:20:00,
2013-08-16 00:25:00,60.1,26.0,0.00,West,268,0.0,0.0,27,0.00,,---,0.00,VWS V14.01,2013-08-16 04:25:00,
2013-08-16 00:30:00,60.1,26.0,0.00,West,268,0.0,0.0,27,0.00,,---,0.00,VWS V14.01,2013-08-16 04:30:00,
2013-08-16 00:36:00,60.1,26.9,0.00,West,268,0.0,0.0,28,0.00,,---,0.00,VWS V14.01,2013-08-16 04:36:00,
2013-08-16 00:41:00,60.1,26.9,0.00,West,267,0.0,0.0,28,0.00,,---,0.00,VWS V14.01,2013-08-16 04:41:00,
2013-08-16 00:46:00,60.1,27.7,0.00,WNW,297,0.0,0.0,29,0.00,,---,0.00,VWS V14.01,2013-08-16 04:46:00,
2013-08-16 00:51:00,60.3,27.9,0.00,WNW,297,0.0,0.0,29,0.00,,---,0.00,VWS V14.01,2013-08-16 04:51:00,
2013-08-16 00:56:00,60.1,27.7,0.00,WNW,297,0.0,0.0,29,0.00,,---,0.00,VWS V14.01,2013-08-16 04:56:00,
2013-08-16 01:01:00,60.1,27.7,0.00,WNW,297,0.0,0.0,29,0.00,,---,0.00,VWS V14.01,2013-08-16 05:01:00,
2013-08-16 01:06:00,59.9,28.4,0.00,WNW,297,0.0,0.0,30,0.00,,---,0.00,VWS V14.01,2013-08-16 05:06:00,
2013-08-16 01:11:00,59.9,28.4,0.00,WNW,297,0.0,0.0,30,0.00,,---,0.00,VWS V14.01,2013-08-16 05:11:00,
2013-08-16 01:20:00,59.7,28.3,0.00,WNW,297,0.0,0.0,30,0.00,,---,0.00,VWS V14.01,2013-08-16 05:20:00,
2013-08-16 01:25:00,59.5,28.9,0.00,WNW,297,0.0,0.0,31,0.00,,---,0.00,VWS V14.01,2013-08-16 05:25:00,
2013-08-16 01:30:00,59.5,28.9,0.00,WNW,297,0.0,0.0,31,0.00,,---,0.00,VWS V14.01,2013-08-16 05:30:00,
2013-08-16 01:35:00,59.5,29.7,0.00,WNW,297,0.0,0.0,32,0.00,,---,0.00,VWS V14.01,2013-08-16 05:35:00,
2013-08-16 01:40:00,59.4,29.5,0.00,WNW,297,0.0,0.0,32,0.00,,---,0.00,VWS V14.01,2013-08-16 05:40:00,
2013-08-16 01:45:00,59.2,29.4,0.00,WNW,297,0.0,0.0,32,0.00,,---,0.00,VWS V14.01,2013-08-16 05:45:00,
2013-08-16 01:51:00,59.2,30.1,0.00,WNW,297,0.0,0.0,33,0.00,,---,0.00,VWS V14.01,2013-08-16 05:51:00,
2013-08-16 01:56:00,59.0,30.0,0.00,WNW,297,0.0,0.0,33,0.00,,---,0.00,VWS V14.01,2013-08-16 05:56:00,
2013-08-16 02:01:00,58.8,30.5,0.00,WNW,297,0.0,0.0,34,0.00,,---,0.00,VWS V14.01,2013-08-16 06:01:00,
2013-08-16 02:06:00,58.6,31.1,0.00,WNW,297,0.0,0.0,35,0.00,,---,0.00,VWS V14.01,2013-08-16 06:06:00,
2013-08-16 02:11:00,58.5,30.9,0.00,WNW,297,0.0,0.0,35,0.00,,---,0.00,VWS V14.01,2013-08-16 06:11:00,
2013-08-16 02:16:00,58.5,30.9,0.00,WNW,297,0.0,0.0,35,0.00,,---,0.00,VWS V14.01,2013-08-16 06:16:00,
2013-08-16 02:21:00,58.6,31.1,0.00,WNW,297,0.0,0.0,35,0.00,,---,0.00,VWS V14.01,2013-08-16 06:21:00,
2013-08-16 02:27:00,58.5,30.9,0.00,WNW,297,0.0,0.0,35,0.00,,---,0.00,VWS V14.01,2013-08-16 06:27:00,
2013-08-16 02:33:00,58.5,30.9,0.00,WNW,297,0.0,0.0,35,0.00,,---,0.00,VWS V14.01,2013-08-16 06:33:00,
2013-08-16 02:38:00,58.3,30.8,0.00,WNW,297,0.0,0.0,35,0.00,,---,0.00,VWS V14.01,2013-08-16 06:38:00,
2013-08-16 02:43:00,58.1,31.3,0.00,WNW,297,0.0,0.0,36,0.00,,---,0.00,VWS V14.01,2013-08-16 06:43:00,
2013-08-16 02:48:00,57.9,31.1,0.00,WNW,297,0.0,0.0,36,0.00,,---,0.00,VWS V14.01,2013-08-16 06:48:00,
2013-08-16 02:54:00,57.9,31.1,0.00,WNW,297,0.0,0.0,36,0.00,,---,0.00,VWS V14.01,2013-08-16 06:54:00,
2013-08-16 02:59:00,57.9,31.1,0.00,WNW,297,0.0,0.0,36,0.00,,---,0.00,VWS V14.01,2013-08-16 06:59:00,
2013-08-16 03:05:00,57.7,31.0,0.00,WNW,297,0.0,0.0,36,0.00,,---,0.00,VWS V14.01,2013-08-16 07:05:00,
2013-08-16 03:10:00,57.6,30.8,0.00,WNW,297,0.0,0.0,36,0.00,,---,0.00,VWS V14.01,2013-08-16 07:10:00,
2013-08-16 03:15:00,57.6,31.5,0.00,WNW,297,0.0,0.0,37,0.00,,---,0.00,VWS V14.01,2013-08-16 07:15:00,
2013-08-16 03:20:00,57.6,31.5,0.00,WNW,297,0.0,0.0,37,0.00,,---,0.00,VWS V14.01,2013-08-16 07:20:00,
2013-08-16 03:26:00,57.4,31.3,0.00,WNW,297,0.0,0.0,37,0.00,,---,0.00,VWS V14.01,2013-08-16 07:26:00,
2013-08-16 03:32:00,57.4,31.3,0.00,WNW,297,0.0,0.0,37,0.00,,---,0.00,VWS V14.01,2013-08-16 07:32:00,
2013-08-16 03:37:00,57.2,31.8,0.00,WNW,297,0.0,0.0,38,0.00,,---,0.00,VWS V14.01,2013-08-16 07:37:00,
2013-08-16 03:42:00,57.2,31.8,0.00,WNW,297,0.0,0.0,38,0.00,,---,0.00,VWS V14.01,2013-08-16 07:42:00,
2013-08-16 03:48:00,57.2,31.8,0.00,WNW,297,0.0,0.0,38,0.00,,---,0.00,VWS V14.01,2013-08-16 07:48:00,
2013-08-16 03:53:00,57.2,31.8,0.00,WNW,297,0.0,0.0,38,0.00,,---,0.00,VWS V14.01,2013-08-16 07:53:00,
2013-08-16 03:58:00,57.2,31.8,0.00,WNW,297,0.0,0.0,38,0.00,,---,0.00,VWS V14.01,2013-08-16 07:58:00,
2013-08-16 04:04:00,57.2,31.8,0.00,WNW,297,0.0,0.0,38,0.00,,---,0.00,VWS V14.01,2013-08-16 08:04:00,
2013-08-16 04:09:00,57.0,32.3,0.00,WNW,297,0.0,0.0,39,0.00,,---,0.00,VWS V14.01,2013-08-16 08:09:00,
2013-08-16 04:15:00,57.0,32.3,0.00,WNW,297,0.0,0.0,39,0.00,,---,0.00,VWS V14.01,2013-08-16 08:15:00,
2013-08-16 04:20:00,57.0,32.3,0.00,WNW,297,0.0,0.0,39,0.00,,---,0.00,VWS V14.01,2013-08-16 08:20:00,
2013-08-16 04:26:00,57.0,32.3,0.00,WNW,297,0.0,0.0,39,0.00,,---,0.00,VWS V14.01,2013-08-16 08:26:00,
2013-08-16 04:32:00,57.0,32.3,0.00,WNW,297,0.0,0.0,39,0.00,,---,0.00,VWS V14.01,2013-08-16 08:32:00,
2013-08-16 04:37:00,56.8,32.8,0.00,WNW,297,0.0,0.0,40,0.00,,---,0.00,VWS V14.01,2013-08-16 08:37:00,
2013-08-16 04:43:00,56.8,32.8,0.00,WNW,297,0.0,0.0,40,0.00,,---,0.00,VWS V14.01,2013-08-16 08:43:00,
2013-08-16 04:48:00,56.8,32.8,0.00,WNW,297,0.0,0.0,40,0.00,,---,0.00,VWS V14.01,2013-08-16 08:48:00,
2013-08-16 04:54:00,56.7,32.6,0.00,WNW,297,0.0,0.0,40,0.00,,---,0.00,VWS V14.01,2013-08-16 08:54:00,
2013-08-16 05:00:00,56.7,32.6,0.00,WNW,297,0.0,0.0,40,0.00,,---,0.00,VWS V14.01,2013-08-16 09:00:00,
2013-08-16 05:05:00,56.7,32.6,0.00,WNW,297,0.0,0.0,40,0.00,,---,0.00,VWS V14.01,2013-08-16 09:05:00,
2013-08-16 05:11:00,56.7,32.6,0.00,WNW,297,0.0,0.0,40,0.00,,---,0.00,VWS V14.01,2013-08-16 09:11:00,
2013-08-16 05:16:00,56.5,32.5,0.00,WNW,297,0.0,0.0,40,0.00,,---,0.00,VWS V14.01,2013-08-16 09:16:00,
2013-08-16 05:22:00,56.5,32.5,0.00,WNW,297,0.0,0.0,40,0.00,,---,0.00,VWS V14.01,2013-08-16 09:22:00,
2013-08-16 05:27:00,56.3,32.3,0.00,WNW,297,0.0,0.0,40,0.00,,---,0.00,VWS V14.01,2013-08-16 09:27:00,
2013-08-16 05:32:00,56.3,32.9,0.00,WNW,297,0.0,0.0,41,0.00,,---,0.00,VWS V14.01,2013-08-16 09:32:00,
2013-08-16 05:37:00,56.5,33.1,0.00,WNW,297,0.0,0.0,41,0.00,,---,0.00,VWS V14.01,2013-08-16 09:37:00,
2013-08-16 05:43:00,56.5,33.1,0.00,WNW,297,0.0,0.0,41,0.00,,---,0.00,VWS V14.01,2013-08-16 09:43:00,
2013-08-16 05:49:00,56.5,33.1,0.00,WNW,297,0.0,0.0,41,0.00,,---,0.00,VWS V14.01,2013-08-16 09:49:00,
2013-08-16 05:54:00,56.7,33.2,0.00,WNW,297,0.0,0.0,41,0.00,,---,0.00,VWS V14.01,2013-08-16 09:54:00,
2013-08-16 06:00:00,56.7,33.2,0.00,WNW,297,0.0,0.0,41,0.00,,---,0.00,VWS V14.01,2013-08-16 10:00:00,
2013-08-16 06:05:00,56.7,33.8,0.00,WNW,297,0.0,0.0,42,0.00,,---,0.00,VWS V14.01,2013-08-16 10:05:00,
2013-08-16 06:11:00,56.7,33.8,0.00,WNW,297,0.0,0.0,42,0.00,,---,0.00,VWS V14.01,2013-08-16 10:11:00,
2013-08-16 06:16:00,56.8,34.0,0.00,WNW,297,0.0,0.0,42,0.00,,---,0.00,VWS V14.01,2013-08-16 10:16:00,
2013-08-16 06:21:00,56.8,34.0,0.00,WNW,297,0.0,0.0,42,0.00,,---,0.00,VWS V14.01,2013-08-16 10:21:00,
2013-08-16 06:27:00,56.8,34.0,0.00,WNW,297,0.0,0.0,42,0.00,,---,0.00,VWS V14.01,2013-08-16 10:27:00,
2013-08-16 06:32:00,57.0,34.2,0.00,WNW,297,0.0,0.0,42,0.00,,---,0.00,VWS V14.01,2013-08-16 10:32:00,
2013-08-16 06:38:00,57.0,34.8,0.00,WNW,297,0.0,0.0,43,0.00,,---,0.00,VWS V14.01,2013-08-16 10:38:00,
2013-08-16 06:43:00,57.2,34.3,0.00,WNW,297,0.0,0.0,42,0.00,,---,0.00,VWS V14.01,2013-08-16 10:43:00,
2013-08-16 06:49:00,57.2,34.3,0.00,WNW,297,0.0,0.0,42,0.00,,---,0.00,VWS V14.01,2013-08-16 10:49:00,
2013-08-16 06:54:00,57.4,34.5,0.00,WNW,297,0.0,0.0,42,0.00,,---,0.00,VWS V14.01,2013-08-16 10:54:00,
2013-08-16 06:59:00,57.6,34.7,0.00,WNW,297,0.0,0.0,42,0.00,,---,0.00,VWS V14.01,2013-08-16 10:59:00,
2013-08-16 07:04:00,57.7,35.4,0.00,WNW,297,0.0,0.0,43,0.00,,---,0.00,VWS V14.01,2013-08-16 11:04:00,
2013-08-16 07:10:00,57.9,35.0,0.00,WNW,297,0.0,0.0,42,0.00,,---,0.00,VWS V14.01,2013-08-16 11:10:00,
2013-08-16 07:15:00,58.1,35.2,0.00,WNW,297,0.0,0.0,42,0.00,,---,0.00,VWS V14.01,2013-08-16 11:15:00,
2013-08-16 07:21:00,58.3,35.3,0.00,WNW,297,0.0,0.0,42,0.00,,---,0.00,VWS V14.01,2013-08-16 11:21:00,
2013-08-16 07:27:00,58.5,35.5,0.00,WNW,297,0.0,0.0,42,0.00,,---,0.00,VWS V14.01,2013-08-16 11:27:00,
2013-08-16 07:32:00,58.8,35.8,0.00,WNW,297,0.0,0.0,42,0.00,,---,0.00,VWS V14.01,2013-08-16 11:32:00,
2013-08-16 07:38:00,59.2,36.1,0.00,WNW,297,0.0,0.0,42,0.00,,---,0.00,VWS V14.01,2013-08-16 11:38:00,
2013-08-16 07:44:00,59.5,36.5,0.00,WNW,297,0.0,0.0,42,0.00,,---,0.00,VWS V14.01,2013-08-16 11:44:00,
2013-08-16 07:49:00,59.9,36.8,0.00,WNW,297,0.0,0.0,42,0.00,,---,0.00,VWS V14.01,2013-08-16 11:49:00,
2013-08-16 07:55:00,60.4,37.3,0.00,WNW,297,0.0,0.0,42,0.00,,---,0.00,VWS V14.01,2013-08-16 11:55:00,
2013-08-16 08:00:00,60.8,37.0,0.00,WNW,297,0.0,0.0,41,0.00,,---,0.00,VWS V14.01,2013-08-16 12:00:00,
2013-08-16 08:05:00,61.2,37.3,0.00,WNW,297,0.0,0.0,41,0.00,,---,0.00,VWS V14.01,2013-08-16 12:05:00,
2013-08-16 08:10:00,61.3,36.8,0.00,WNW,297,0.0,0.0,40,0.00,,---,0.00,VWS V14.01,2013-08-16 12:10:00,
2013-08-16 08:15:00,61.7,37.2,0.00,WNW,297,0.0,0.0,40,0.00,,---,0.00,VWS V14.01,2013-08-16 12:15:00,
2013-08-16 08:20:00,62.2,37.0,0.00,WNW,291,0.0,0.0,39,0.00,,---,0.00,VWS V14.01,2013-08-16 12:20:00,
2013-08-16 08:26:00,62.8,37.5,0.00,NW,317,0.0,0.0,39,0.00,,---,0.00,VWS V14.01,2013-08-16 12:26:00,
2013-08-16 08:31:00,63.5,37.5,0.00,NW,317,0.0,0.0,38,0.00,,---,0.00,VWS V14.01,2013-08-16 12:31:00,
2013-08-16 08:37:00,64.2,37.4,0.00,NW,317,0.0,0.0,37,0.00,,---,0.00,VWS V14.01,2013-08-16 12:37:00,
2013-08-16 08:42:00,64.6,37.0,0.00,NW,325,0.0,0.0,36,0.00,,---,0.00,VWS V14.01,2013-08-16 12:42:00,
2013-08-16 08:48:00,64.9,35.9,0.00,NNW,340,0.0,0.0,34,0.00,,---,0.00,VWS V14.01,2013-08-16 12:48:00,
2013-08-16 08:53:00,65.5,36.4,0.00,NNW,340,0.0,0.0,34,0.00,,---,0.00,VWS V14.01,2013-08-16 12:53:00,
2013-08-16 08:59:00,65.8,36.0,0.00,NNW,340,0.0,0.0,33,0.00,,---,0.00,VWS V14.01,2013-08-16 12:59:00,
2013-08-16 09:04:00,66.6,35.0,0.00,NNW,340,0.0,0.0,31,0.00,,---,0.00,VWS V14.01,2013-08-16 13:04:00,
2013-08-16 09:09:00,66.6,29.7,0.00,North,3,0.0,0.0,25,0.00,,---,0.00,VWS V14.01,2013-08-16 13:09:00,
2013-08-16 09:15:00,66.9,29.0,0.00,North,9,0.0,0.0,24,0.00,,---,0.00,VWS V14.01,2013-08-16 13:15:00,
2013-08-16 09:20:00,67.3,29.3,0.00,North,8,0.0,0.0,24,0.00,,---,0.00,VWS V14.01,2013-08-16 13:20:00,
2013-08-16 09:26:00,68.0,28.9,0.00,NNE,27,0.0,0.0,23,0.00,,---,0.00,VWS V14.01,2013-08-16 13:26:00,
2013-08-16 09:31:00,68.5,28.2,0.00,NNE,27,0.0,0.0,22,0.00,,---,0.00,VWS V14.01,2013-08-16 13:31:00,
2013-08-16 09:37:00,69.4,29.0,0.00,NE,34,0.0,0.0,22,0.00,,---,0.00,VWS V14.01,2013-08-16 13:37:00,
2013-08-16 09:42:00,70.0,29.4,0.00,SSE,151,0.0,0.0,22,0.00,,---,0.00,VWS V14.01,2013-08-16 13:42:00,
2013-08-16 09:48:00,70.5,29.9,0.00,SSE,153,0.0,0.0,22,0.00,,---,0.00,VWS V14.01,2013-08-16 13:48:00,
2013-08-16 09:54:00,70.9,26.6,0.00,NNE,20,0.0,0.0,19,0.00,,---,0.00,VWS V14.01,2013-08-16 13:54:00,
2013-08-16 09:59:00,71.1,26.8,0.00,NNE,20,0.0,0.0,19,0.00,,---,0.00,VWS V14.01,2013-08-16 13:59:00,
2013-08-16 10:05:00,71.4,27.0,0.00,NNE,20,0.0,0.0,19,0.00,,---,0.00,VWS V14.01,2013-08-16 14:05:00,
2013-08-16 10:10:00,71.8,27.3,0.00,NNE,19,0.0,0.0,19,0.00,,---,0.00,VWS V14.01,2013-08-16 14:10:00,
2013-08-16 10:16:00,72.5,27.9,0.00,East,97,0.0,0.0,19,0.00,,---,0.00,VWS V14.01,2013-08-16 14:16:00,
2013-08-16 10:21:00,72.9,28.2,0.00,NW,308,0.0,0.0,19,0.00,,---,0.00,VWS V14.01,2013-08-16 14:21:00,
2013-08-16 10:27:00,73.0,24.2,0.00,SSE,148,0.0,0.0,16,0.00,,---,0.00,VWS V14.01,2013-08-16 14:27:00,
2013-08-16 10:33:00,73.4,24.5,0.00,SSW,203,0.0,0.0,16,0.00,,---,0.00,VWS V14.01,2013-08-16 14:33:00,
2013-08-16 10:38:00,73.6,24.7,0.00,West,262,0.0,0.0,16,0.00,,---,0.00,VWS V14.01,2013-08-16 14:38:00,
2013-08-16 10:44:00,73.9,25.0,0.00,ENE,73,0.0,0.0,16,0.00,,---,0.00,VWS V14.01,2013-08-16 14:44:00,
2013-08-16 10:49:00,74.3,25.2,0.00,North,353,0.0,0.0,16,0.00,,---,0.00,VWS V14.01,2013-08-16 14:49:00,
2013-08-16 10:54:00,74.7,25.5,0.00,WNW,295,0.0,0.0,16,0.00,,---,0.00,VWS V14.01,2013-08-16 14:54:00,
2013-08-16 11:00:00,75.0,25.8,0.00,SSE,156,0.0,0.0,16,0.00,,---,0.00,VWS V14.01,2013-08-16 15:00:00,
2013-08-16 11:06:00,75.4,24.6,0.00,East,92,0.0,0.0,15,0.00,,---,0.00,VWS V14.01,2013-08-16 15:06:00,
2013-08-16 11:12:00,75.7,24.9,0.00,NNW,337,0.0,0.0,15,0.00,,---,0.00,VWS V14.01,2013-08-16 15:12:00,
2013-08-16 11:18:00,75.9,25.0,0.00,NW,316,0.0,0.0,15,0.00,,---,0.00,VWS V14.01,2013-08-16 15:18:00,
2013-08-16 11:23:00,76.3,25.3,0.00,SE,143,0.0,0.0,15,0.00,,---,0.00,VWS V14.01,2013-08-16 15:23:00,
2013-08-16 11:28:00,76.8,25.7,0.00,NNW,331,0.0,0.0,15,0.00,,---,0.00,VWS V14.01,2013-08-16 15:28:00,
2013-08-16 11:33:00,77.5,26.3,0.00,West,276,0.0,0.0,15,0.00,,---,0.00,VWS V14.01,2013-08-16 15:33:00,
2013-08-16 11:39:00,78.4,27.0,0.00,NW,321,0.0,0.0,15,0.00,,---,0.00,VWS V14.01,2013-08-16 15:39:00,
2013-08-16 11:44:00,79.3,27.7,0.00,ESE,102,0.0,0.0,15,0.00,,---,0.00,VWS V14.01,2013-08-16 15:44:00,
2013-08-16 11:50:00,80.4,28.6,0.00,NNE,28,0.0,0.0,15,0.00,,---,0.00,VWS V14.01,2013-08-16 15:50:00,
2013-08-16 11:55:00,81.0,27.3,0.00,South,186,0.0,0.0,14,0.00,,---,0.00,VWS V14.01,2013-08-16 15:55:00,
2013-08-16 12:01:00,81.5,27.8,0.00,NNE,33,2.7,3.6,14,0.00,,---,0.00,VWS V14.01,2013-08-16 16:01:00,
2013-08-16 12:06:00,80.8,27.2,0.00,WSW,251,5.4,5.4,14,0.00,,---,0.00,VWS V14.01,2013-08-16 16:06:00,
2013-08-16 12:11:00,79.2,27.6,0.00,WNW,299,0.0,0.0,15,0.00,,---,0.00,VWS V14.01,2013-08-16 16:11:00,
2013-08-16 12:17:00,78.6,27.1,0.00,NW,313,0.0,0.0,15,0.00,,---,0.00,VWS V14.01,2013-08-16 16:17:00,
2013-08-16 12:22:00,78.4,27.0,0.00,NW,314,0.0,0.0,15,0.00,,---,0.00,VWS V14.01,2013-08-16 16:22:00,
2013-08-16 12:28:00,79.2,27.6,0.00,North,5,0.0,0.0,15,0.00,,---,0.00,VWS V14.01,2013-08-16 16:28:00,
2013-08-16 12:33:00,79.0,27.4,0.00,NW,319,0.0,0.0,15,0.00,,---,0.00,VWS V14.01,2013-08-16 16:33:00,
2013-08-16 12:39:00,79.0,27.4,0.00,South,177,0.0,0.0,15,0.00,,---,0.00,VWS V14.01,2013-08-16 16:39:00,
2013-08-16 12:44:00,79.3,27.7,0.00,SE,139,0.0,0.0,15,0.00,,---,0.00,VWS V14.01,2013-08-16 16:44:00,
2013-08-16 12:50:00,79.9,28.1,0.00,North,0,0.0,0.0,15,0.00,,---,0.00,VWS V14.01,2013-08-16 16:50:00,
2013-08-16 12:56:00,80.2,28.4,0.00,ESE,120,0.0,0.0,15,0.00,,---,0.00,VWS V14.01,2013-08-16 16:56:00,
2013-08-16 13:02:00,80.4,28.6,0.00,SE,135,0.0,0.0,15,0.00,,---,0.00,VWS V14.01,2013-08-16 17:02:00,
2013-08-16 13:07:00,81.0,27.3,0.00,South,179,0.0,0.0,14,0.00,,---,0.00,VWS V14.01,2013-08-16 17:07:00,
2013-08-16 13:12:00,81.5,27.8,0.00,NNE,14,3.6,3.6,14,0.00,,---,0.00,VWS V14.01,2013-08-16 17:12:00,
2013-08-16 13:17:00,80.4,28.6,0.00,North,6,4.0,4.0,15,0.00,,---,0.00,VWS V14.01,2013-08-16 17:17:00,
2013-08-16 13:22:00,79.7,28.0,0.00,North,353,0.0,0.0,15,0.00,,---,0.00,VWS V14.01,2013-08-16 17:22:00,
2013-08-16 13:27:00,79.2,27.6,0.00,North,350,0.0,0.0,15,0.00,,---,0.00,VWS V14.01,2013-08-16 17:27:00,
2013-08-16 13:33:00,79.3,27.7,0.00,NNE,23,2.7,4.0,15,0.00,,---,0.00,VWS V14.01,2013-08-16 17:33:00,
2013-08-16 13:38:00,79.9,28.1,0.00,NNW,342,0.0,2.7,15,0.00,,---,0.00,VWS V14.01,2013-08-16 17:38:00,
2013-08-16 13:43:00,80.4,28.6,0.00,North,353,0.0,0.0,15,0.00,,---,0.00,VWS V14.01,2013-08-16 17:43:00,
2013-08-16 13:48:00,80.6,27.0,0.00,North,10,2.2,3.6,14,0.00,,---,0.00,VWS V14.01,2013-08-16 17:48:00,
2013-08-16 13:54:00,80.6,27.0,0.00,NE,37,0.0,0.0,14,0.00,,---,0.00,VWS V14.01,2013-08-16 17:54:00,
2013-08-16 13:59:00,80.8,27.2,0.00,West,273,2.7,3.6,14,0.00,,---,0.00,VWS V14.01,2013-08-16 17:59:00,
2013-08-16 14:04:00,79.3,27.7,0.00,NW,307,0.0,0.0,15,0.00,,---,0.00,VWS V14.01,2013-08-16 18:04:00,
2013-08-16 14:09:00,78.8,27.3,0.00,NNW,340,0.0,0.0,15,0.00,,---,0.00,VWS V14.01,2013-08-16 18:09:00,
2013-08-16 14:14:00,78.3,26.9,0.00,North,0,0.0,0.0,15,0.00,,---,0.00,VWS V14.01,2013-08-16 18:14:00,
2013-08-16 14:20:00,78.4,27.0,0.00,North,0,0.0,0.0,15,0.00,,---,0.00,VWS V14.01,2013-08-16 18:20:00,
2013-08-16 14:25:00,79.3,27.7,0.00,NNE,24,2.7,4.0,15,0.00,,---,0.00,VWS V14.01,2013-08-16 18:25:00,
2013-08-16 14:30:00,79.9,28.1,0.00,West,277,0.0,0.0,15,0.00,,---,0.00,VWS V14.01,2013-08-16 18:30:00,
2013-08-16 14:35:00,80.4,28.6,0.00,NNE,21,0.0,0.0,15,0.00,,---,0.00,VWS V14.01,2013-08-16 18:35:00,
2013-08-16 14:40:00,81.3,27.6,0.00,NNE,21,0.0,0.0,14,0.00,,---,0.00,VWS V14.01,2013-08-16 18:40:00,
2013-08-16 14:45:00,82.0,28.2,0.00,NE,36,0.0,0.0,14,0.00,,---,0.00,VWS V14.01,2013-08-16 18:45:00,
2013-08-16 14:51:00,83.1,29.0,0.00,North,353,0.0,0.0,14,0.00,,---,0.00,VWS V14.01,2013-08-16 18:51:00,
2013-08-16 14:56:00,83.1,29.0,0.00,NNW,343,0.0,0.0,14,0.00,,---,0.00,VWS V14.01,2013-08-16 18:56:00,
2013-08-16 15:01:00,83.1,29.0,0.00,NW,316,0.0,0.0,14,0.00,,---,0.00,VWS V14.01,2013-08-16 19:01:00,
2013-08-16 15:07:00,82.4,28.5,0.00,NE,39,0.0,0.0,14,0.00,,---,0.00,VWS V14.01,2013-08-16 19:07:00,
2013-08-16 15:12:00,82.2,28.3,0.00,ESE,111,0.0,0.0,14,0.00,,---,0.00,VWS V14.01,2013-08-16 19:12:00,
2013-08-16 15:17:00,82.4,28.5,0.00,North,357,0.0,0.0,14,0.00,,---,0.00,VWS V14.01,2013-08-16 19:17:00,
2013-08-16 15:23:00,82.2,28.3,0.00,North,10,0.0,0.0,14,0.00,,---,0.00,VWS V14.01,2013-08-16 19:23:00,
2013-08-16 15:28:00,82.4,28.5,0.00,North,3,0.0,0.0,14,0.00,,---,0.00,VWS V14.01,2013-08-16 19:28:00,
2013-08-16 15:34:00,82.6,28.6,0.00,East,86,0.0,0.0,14,0.00,,---,0.00,VWS V14.01,2013-08-16 19:34:00,
2013-08-16 15:39:00,82.6,28.6,0.00,North,4,0.0,0.0,14,0.00,,---,0.00,VWS V14.01,2013-08-16 19:39:00,
2013-08-16 15:45:00,82.0,28.2,0.00,NNE,16,0.0,0.0,14,0.00,,---,0.00,VWS V14.01,2013-08-16 19:45:00,
2013-08-16 15:50:00,81.5,27.8,0.00,North,353,0.0,0.0,14,0.00,,---,0.00,VWS V14.01,2013-08-16 19:50:00,
2013-08-16 15:55:00,81.0,27.3,0.00,NNE,24,0.0,0.0,14,0.00,,---,0.00,VWS V14.01,2013-08-16 19:55:00,
2013-08-16 16:00:00,80.4,28.6,0.00,NNE,24,2.7,3.6,15,0.00,,---,0.00,VWS V14.01,2013-08-16 20:00:00,
2013-08-16 16:05:00,80.8,27.2,0.00,ESE,107,0.0,0.0,14,0.00,,---,0.00,VWS V14.01,2013-08-16 20:05:00,
2013-08-16 16:10:00,81.3,27.6,0.00,North,357,0.0,0.0,14,0.00,,---,0.00,VWS V14.01,2013-08-16 20:10:00,
2013-08-16 16:15:00,81.0,27.3,0.00,North,357,0.0,0.0,14,0.00,,---,0.00,VWS V14.01,2013-08-16 20:15:00,
2013-08-16 16:21:00,80.4,28.6,0.00,NNW,348,0.0,0.0,15,0.00,,---,0.00,VWS V14.01,2013-08-16 20:21:00,
2013-08-16 16:26:00,80.1,28.3,0.00,NNW,341,0.0,0.0,15,0.00,,---,0.00,VWS V14.01,2013-08-16 20:26:00,
2013-08-16 16:31:00,79.2,27.6,0.00,NNE,18,2.7,3.6,15,0.00,,---,0.00,VWS V14.01,2013-08-16 20:31:00,
2013-08-16 16:36:00,78.4,27.0,0.00,NNE,18,0.0,0.0,15,0.00,,---,0.00,VWS V14.01,2013-08-16 20:36:00,
2013-08-16 16:41:00,78.1,26.7,0.00,NNE,18,0.0,0.0,15,0.00,,---,0.00,VWS V14.01,2013-08-16 20:41:00,
2013-08-16 16:46:00,77.7,26.4,0.00,SW,222,0.0,0.0,15,0.00,,---,0.00,VWS V14.01,2013-08-16 20:46:00,
2013-08-16 16:51:00,77.4,26.1,0.00,NNE,15,0.0,0.0,15,0.00,,---,0.00,VWS V14.01,2013-08-16 20:51:00,
2013-08-16 16:56:00,77.2,26.0,0.00,NNE,12,0.0,0.0,15,0.00,,---,0.00,VWS V14.01,2013-08-16 20:56:00,
2013-08-16 17:01:00,77.4,26.1,0.00,North,2,2.2,2.2,15,0.00,,---,0.00,VWS V14.01,2013-08-16 21:01:00,
2013-08-16 17:06:00,77.2,26.0,0.00,North,353,0.0,3.1,15,0.00,,---,0.00,VWS V14.01,2013-08-16 21:06:00,
2013-08-16 17:11:00,77.2,26.0,0.00,NNE,17,0.0,0.0,15,0.00,,---,0.00,VWS V14.01,2013-08-16 21:11:00,
2013-08-16 17:17:00,77.2,26.0,0.00,NNE,17,0.0,0.0,15,0.00,,---,0.00,VWS V14.01,2013-08-16 21:17:00,
2013-08-16 17:22:00,77.0,25.9,0.00,NNE,16,0.0,0.0,15,0.00,,---,0.00,VWS V14.01,2013-08-16 21:22:00,
2013-08-16 17:27:00,77.0,25.9,0.00,NE,52,0.0,0.0,15,0.00,,---,0.00,VWS V14.01,2013-08-16 21:27:00,
2013-08-16 17:32:00,76.8,25.7,0.00,NE,51,0.0,0.0,15,0.00,,---,0.00,VWS V14.01,2013-08-16 21:32:00,
2013-08-16 17:37:00,76.6,25.6,0.00,NE,51,0.0,0.0,15,0.00,,---,0.00,VWS V14.01,2013-08-16 21:37:00,
2013-08-16 17:42:00,76.6,25.6,0.00,NNE,12,0.0,0.0,15,0.00,,---,0.00,VWS V14.01,2013-08-16 21:42:00,
2013-08-16 17:47:00,76.5,25.4,0.00,NNE,12,0.0,0.0,15,0.00,,---,0.00,VWS V14.01,2013-08-16 21:47:00,
2013-08-16 17:52:00,76.1,25.1,0.00,NNE,12,0.0,0.0,15,0.00,,---,0.00,VWS V14.01,2013-08-16 21:52:00,
2013-08-16 17:57:00,75.6,24.7,0.00,NNE,12,0.0,0.0,15,0.00,,---,0.00,VWS V14.01,2013-08-16 21:57:00,
2013-08-16 18:02:00,75.4,24.6,0.00,NNE,12,0.0,0.0,15,0.00,,---,0.00,VWS V14.01,2013-08-16 22:02:00,
2013-08-16 18:07:00,75.6,24.7,0.00,NNE,12,0.0,0.0,15,0.00,,---,0.00,VWS V14.01,2013-08-16 22:07:00,
2013-08-16 18:13:00,75.7,24.9,0.00,NNE,12,0.0,0.0,15,0.00,,---,0.00,VWS V14.01,2013-08-16 22:13:00,
2013-08-16 18:18:00,75.9,25.0,0.00,NNE,12,0.0,0.0,15,0.00,,---,0.00,VWS V14.01,2013-08-16 22:18:00,
2013-08-16 18:23:00,76.1,25.1,0.00,NNE,12,0.0,0.0,15,0.00,,---,0.00,VWS V14.01,2013-08-16 22:23:00,
2013-08-16 18:28:00,76.3,25.3,0.00,NNE,12,0.0,0.0,15,0.00,,---,0.00,VWS V14.01,2013-08-16 22:28:00,
2013-08-16 18:33:00,76.5,25.4,0.00,NNE,12,0.0,0.0,15,0.00,,---,0.00,VWS V14.01,2013-08-16 22:33:00,
2013-08-16 18:38:00,76.5,25.4,0.00,NNE,12,0.0,0.0,15,0.00,,---,0.00,VWS V14.01,2013-08-16 22:38:00,
2013-08-16 18:43:00,76.1,25.1,0.00,NNE,12,0.0,0.0,15,0.00,,---,0.00,VWS V14.01,2013-08-16 22:43:00,
2013-08-16 18:48:00,75.9,25.0,0.00,NNE,12,0.0,0.0,15,0.00,,---,0.00,VWS V14.01,2013-08-16 22:48:00,
2013-08-16 18:53:00,75.7,24.9,0.00,NE,56,0.0,0.0,15,0.00,,---,0.00,VWS V14.01,2013-08-16 22:53:00,
2013-08-16 18:59:00,75.2,24.4,0.00,SSE,161,0.0,0.0,15,0.00,,---,0.00,VWS V14.01,2013-08-16 22:59:00,
2013-08-16 19:04:00,74.8,25.7,0.00,SSE,161,0.0,0.0,16,0.00,,---,0.00,VWS V14.01,2013-08-16 23:04:00,
2013-08-16 19:09:00,74.7,25.5,0.00,SSE,161,0.0,0.0,16,0.00,,---,0.00,VWS V14.01,2013-08-16 23:09:00,
2013-08-16 19:14:00,74.5,25.4,0.00,SSE,161,0.0,0.0,16,0.00,,---,0.00,VWS V14.01,2013-08-16 23:14:00,
2013-08-16 19:20:00,74.5,25.4,0.00,SSE,160,0.0,0.0,16,0.00,,---,0.00,VWS V14.01,2013-08-16 23:20:00,
2013-08-16 19:25:00,74.3,25.2,0.00,SSE,160,0.0,0.0,16,0.00,,---,0.00,VWS V14.01,2013-08-16 23:25:00,
2013-08-16 19:30:00,74.1,25.1,0.00,SSW,206,0.0,0.0,16,0.00,,---,0.00,VWS V14.01,2013-08-16 23:30:00,
2013-08-16 19:35:00,73.9,25.0,0.00,ESE,109,0.0,0.0,16,0.00,,---,0.00,VWS V14.01,2013-08-16 23:35:00,
2013-08-16 19:40:00,73.6,24.7,0.00,SSW,208,0.0,0.0,16,0.00,,---,0.00,VWS V14.01,2013-08-16 23:40:00,
2013-08-16 19:45:00,73.0,24.2,0.00,SSW,209,0.0,0.0,16,0.00,,---,0.00,VWS V14.01,2013-08-16 23:45:00,
2013-08-16 19:50:00,72.5,23.8,0.00,SSW,209,0.0,0.0,16,0.00,,---,0.00,VWS V14.01,2013-08-16 23:50:00,
2013-08-16 19:55:00,72.1,23.5,0.00,ESE,111,0.0,0.0,16,0.00,,---,0.00,VWS V14.01,2013-08-16 23:55:00,
2013-08-16 20:00:00,71.8,23.2,0.00,South,176,0.0,0.0,16,0.00,,---,0.00,VWS V14.01,2013-08-17 00:00:00,
2013-08-16 20:05:00,71.6,23.1,0.00,South,176,0.0,0.0,16,0.00,,---,0.00,VWS V14.01,2013-08-17 00:05:00,
2013-08-16 20:10:00,71.4,24.4,0.00,South,176,0.0,0.0,17,0.00,,---,0.00,VWS V14.01,2013-08-17 00:10:00,
2013-08-16 20:15:00,71.2,24.2,0.00,South,176,0.0,0.0,17,0.00,,---,0.00,VWS V14.01,2013-08-17 00:15:00,
2013-08-16 20:20:00,70.9,23.9,0.00,South,176,0.0,0.0,17,0.00,,---,0.00,VWS V14.01,2013-08-17 00:20:00,
2013-08-16 20:25:00,70.7,23.8,0.00,ESE,119,0.0,0.0,17,0.00,,---,0.00,VWS V14.01,2013-08-17 00:25:00,
2013-08-16 20:30:00,70.5,23.6,0.00,ESE,119,0.0,0.0,17,0.00,,---,0.00,VWS V14.01,2013-08-17 00:30:00,
2013-08-16 20:35:00,70.3,23.5,0.00,ESE,119,0.0,0.0,17,0.00,,---,0.00,VWS V14.01,2013-08-17 00:35:00,
2013-08-16 20:40:00,70.3,23.5,0.00,ESE,121,0.0,0.0,17,0.00,,---,0.00,VWS V14.01,2013-08-17 00:40:00,
2013-08-16 20:46:00,70.2,23.4,0.00,ESE,121,0.0,0.0,17,0.00,,---,0.00,VWS V14.01,2013-08-17 00:46:00,
2013-08-16 20:51:00,69.8,23.1,0.00,ESE,121,0.0,0.0,17,0.00,,---,0.00,VWS V14.01,2013-08-17 00:51:00,
2013-08-16 20:56:00,69.6,22.9,0.00,ESE,121,0.0,0.0,17,0.00,,---,0.00,VWS V14.01,2013-08-17 00:56:00,
2013-08-16 21:01:00,69.4,22.8,0.00,ESE,121,0.0,0.0,17,0.00,,---,0.00,VWS V14.01,2013-08-17 01:01:00,
2013-08-16 21:06:00,69.4,22.8,0.00,ESE,121,0.0,0.0,17,0.00,,---,0.00,VWS V14.01,2013-08-17 01:06:00,
2013-08-16 21:11:00,69.3,22.6,0.00,ESE,121,0.0,0.0,17,0.00,,---,0.00,VWS V14.01,2013-08-17 01:11:00,
2013-08-16 21:16:00,69.1,22.5,0.00,ESE,121,0.0,0.0,17,0.00,,---,0.00,VWS V14.01,2013-08-17 01:16:00,
2013-08-16 21:21:00,69.1,22.5,0.00,ESE,121,0.0,0.0,17,0.00,,---,0.00,VWS V14.01,2013-08-17 01:21:00,
2013-08-16 21:27:00,69.1,22.5,0.00,SE,133,0.0,0.0,17,0.00,,---,0.00,VWS V14.01,2013-08-17 01:27:00,
2013-08-16 21:32:00,68.9,22.3,0.00,SE,133,0.0,0.0,17,0.00,,---,0.00,VWS V14.01,2013-08-17 01:32:00,
2013-08-16 21:37:00,68.9,22.3,0.00,SSE,147,0.0,0.0,17,0.00,,---,0.00,VWS V14.01,2013-08-17 01:37:00,
2013-08-16 21:42:00,68.7,22.2,0.00,SE,129,0.0,0.0,17,0.00,,---,0.00,VWS V14.01,2013-08-17 01:42:00,
2013-08-16 21:47:00,68.7,22.2,0.00,ESE,116,0.0,0.0,17,0.00,,---,0.00,VWS V14.01,2013-08-17 01:47:00,
2013-08-16 21:52:00,68.5,22.0,0.00,ESE,116,0.0,0.0,17,0.00,,---,0.00,VWS V14.01,2013-08-17 01:52:00,
2013-08-16 21:57:00,68.5,22.0,0.00,ESE,116,0.0,0.0,17,0.00,,---,0.00,VWS V14.01,2013-08-17 01:57:00,
2013-08-16 22:02:00,68.4,21.9,0.00,ESE,116,0.0,0.0,17,0.00,,---,0.00,VWS V14.01,2013-08-17 02:02:00,
2013-08-16 22:07:00,68.2,21.7,0.00,ESE,116,0.0,0.0,17,0.00,,---,0.00,VWS V14.01,2013-08-17 02:07:00,
2013-08-16 22:12:00,68.0,21.6,0.00,ESE,116,0.0,0.0,17,0.00,,---,0.00,VWS V14.01,2013-08-17 02:12:00,
2013-08-16 22:17:00,67.8,21.5,0.00,ESE,116,0.0,0.0,17,0.00,,---,0.00,VWS V14.01,2013-08-17 02:17:00,
2013-08-16 22:22:00,67.6,21.3,0.00,ESE,116,0.0,0.0,17,0.00,,---,0.00,VWS V14.01,2013-08-17 02:22:00,
2013-08-16 22:27:00,67.5,21.2,0.00,ESE,116,0.0,0.0,17,0.00,,---,0.00,VWS V14.01,2013-08-17 02:27:00,
2013-08-16 22:32:00,67.3,21.0,0.00,ESE,116,0.0,0.0,17,0.00,,---,0.00,VWS V14.01,2013-08-17 02:32:00,
2013-08-16 22:37:00,66.9,20.7,0.00,ESE,116,0.0,0.0,17,0.00,,---,0.00,VWS V14.01,2013-08-17 02:37:00,
2013-08-16 22:42:00,66.7,20.6,0.00,ESE,116,0.0,0.0,17,0.00,,---,0.00,VWS V14.01,2013-08-17 02:42:00,
2013-08-16 22:48:00,66.6,20.4,0.00,ESE,116,0.0,0.0,17,0.00,,---,0.00,VWS V14.01,2013-08-17 02:48:00,
2013-08-16 22:54:00,66.4,20.3,0.00,ESE,116,0.0,0.0,17,0.00,,---,0.00,VWS V14.01,2013-08-17 02:54:00,
2013-08-16 22:59:00,66.2,20.1,0.00,ESE,116,0.0,0.0,17,0.00,,---,0.00,VWS V14.01,2013-08-17 02:59:00,
2013-08-16 23:04:00,65.8,21.2,0.00,ESE,116,0.0,0.0,18,0.00,,---,0.00,VWS V14.01,2013-08-17 03:04:00,
2013-08-16 23:09:00,65.7,21.0,0.00,ESE,116,0.0,0.0,18,0.00,,---,0.00,VWS V14.01,2013-08-17 03:09:00,
2013-08-16 23:14:00,65.5,20.9,0.00,ESE,116,0.0,0.0,18,0.00,,---,0.00,VWS V14.01,2013-08-17 03:14:00,
2013-08-16 23:19:00,65.3,20.7,0.00,ESE,116,0.0,0.0,18,0.00,,---,0.00,VWS V14.01,2013-08-17 03:19:00,
2013-08-16 23:24:00,65.1,20.6,0.00,ESE,116,0.0,0.0,18,0.00,,---,0.00,VWS V14.01,2013-08-17 03:24:00,
2013-08-16 23:29:00,64.8,20.3,0.00,ESE,116,0.0,0.0,18,0.00,,---,0.00,VWS V14.01,2013-08-17 03:29:00,
2013-08-16 23:34:00,64.6,20.1,0.00,ESE,116,0.0,0.0,18,0.00,,---,0.00,VWS V14.01,2013-08-17 03:34:00,
2013-08-16 23:39:00,64.4,20.0,0.00,ESE,116,0.0,0.0,18,0.00,,---,0.00,VWS V14.01,2013-08-17 03:39:00,
2013-08-16 23:44:00,64.2,19.9,0.00,ESE,116,0.0,0.0,18,0.00,,---,0.00,VWS V14.01,2013-08-17 03:44:00,
2013-08-16 23:49:00,64.2,19.9,0.00,ESE,116,0.0,0.0,18,0.00,,---,0.00,VWS V14.01,2013-08-17 03:49:00,
2013-08-16 23:54:00,64.0,19.7,0.00,ESE,116,0.0,0.0,18,0.00,,---,0.00,VWS V14.01,2013-08-17 03:54:00,
2013-08-16 23:59:00,63.9,23.2,0.00,ESE,116,0.0,0.0,21,0.00,,---,0.00,VWS V14.01,2013-08-17 03:59:00,